Regional Weather Roundup
Issued by NWS

Home | Current Version | Previous Version | Text Only | Print | Product List | Glossary On
Versions: 1 2 3 4 5 6 7 8 9 10 11 12 13 14 15 16 17 18 19 20 21 22 23 24 25 26 27 28 29 30 31 32 33 34 35 36 37 38 39 40 41 42 43 44 45 46 47 48 49 50
000
ASUS44 KFWD 020415
RWRTX
NORTH TEXAS HOURLY WEATHER ROUNDUP
NATIONAL WEATHER SERVICE FORT WORTH TX
1100 PM CDT FRI AUG 01 2014

NOTE: "FAIR" INDICATES FEW OR NO CLOUDS BELOW 12,000 FEET WITH NO
SIGNIFICANT WEATHER AND/OR OBSTRUCTIONS TO VISIBILITY.

TXZ118-119-020500-
DALLAS/FORT WORTH METROPLEX

CITY           SKY/WX    TMP DP  RH WIND       PRES   REMARKS
DFW AIRPORT    MOCLDY    73  65  75 NE5       30.05R
DALLAS LOVE    MOCLDY    73  66  78 NE5       30.05R
FTW MEACHAM    CLEAR     75  66  73 E5        30.06R
DAL-EXECUTIVE  CLOUDY    75  66  73 CALM      30.05R
FTW-ALLIANCE   PTCLDY    70  66  87 CALM      30.06R
FTW-NAS-JRB    PTCLDY    76  64  66 E6        30.10R
ARLINGTON      CLOUDY    75  65  70 E3        30.06R
GRAND PRAIRIE  CLOUDY    75  64  68 NE6       30.07R
ADDISON        PTCLDY    73  66  76 NE3       30.07S
MESQUITE       PTCLDY    71  67  86 CALM      30.05R
LANCASTER      CLOUDY    73  65  76 CALM      30.06R
$$

TXZ091>094-102>105-117-120-121-131>134-020500-
NORTH CENTRAL TEXAS

CITY           SKY/WX    TMP DP  RH WIND       PRES   REMARKS
SHRMAN/DENISON CLEAR     69  66  91 CALM      30.08S
GAINESVILLE    CLEAR     69  66  89 CALM      30.10R
BOWIE          PTCLDY    68  66  94 CALM      30.09R
BRIDGEPORT     PTCLDY    69  63  79 CALM      30.10R
DECATUR        PTCLDY    69  66  92 E3        30.09R
DENTON         PTCLDY    71  66  84 NE3       30.06R
MCKINNEY       PTCLDY    70  66  87 CALM      30.06R
GREENVILLE     PTCLDY    70  68  94 CALM      30.06R
ROCKWALL       PTCLDY    70  68  92 CALM      30.05R
TERRELL        CLOUDY    73  70  90 CALM      30.05R
WAXAHACHIE     CLOUDY    73  64  73 NE3       30.07R
CLEBURNE       CLEAR     72  68  88 E3        30.09R
GRANBURY       PTCLDY    75  65  72 E5        30.09R
$$

TXZ083>090-098>101-113>116-127>130-139>142-154-155-020500-
WESTERN NORTH TEXAS

CITY           SKY/WX    TMP DP  RH WIND       PRES   REMARKS
WICHITA FALLS  CLEAR     72  66  81 E7        30.07R
WF-KICKAPOO    CLEAR     73  65  75 E5        30.09R
VERNON         CLEAR     75  64  70 SE3       30.09R
ABILENE        CLEAR     77  59  53 E7        30.10R
BRECKENRIDGE   CLEAR     76  60  56 E7        30.08R
GRAHAM         CLEAR     71  62  73 E5        30.07R
MINERAL WELLS  CLEAR     72  64  76 E7        30.06R
STEPHENVILLE   CLEAR     72  63  73 E5        30.11R
COMANCHE       CLEAR     73  62  68 SE3       30.08R
BROWNWOOD      PTCLDY    73  61  64 E6        30.08R
COLEMAN        CLEAR     75  58  54 E6        30.09R
BRADY          CLEAR     75  61  60 E6        30.08R
$$

TXZ143>147-156>162-174-175-020500-
CENTRAL TEXAS

CITY           SKY/WX    TMP DP  RH WIND       PRES   REMARKS
WACO           CLOUDY    76  65  68 E6        30.05R
WACO-TSTC      CLOUDY    75  66  73 NE6       30.05R
WACO-MCGREGOR  CLOUDY    75  63  64 NE6       30.07R
HILLSBORO      CLOUDY    73  65  74 CALM      30.07R
CORSICANA      CLOUDY    74  67  78 NE3       30.06R
MEXIA          CLOUDY    72  67  84 CALM      30.04R
HEARNE         CLEAR     71  67  89 CALM      30.03R
CAMERON        PTCLDY    73  68  84 CALM      30.04R
TEMPLE         CLOUDY    75  63  64 NE10      30.03S
KILLEEN        PTCLDY    75  64  69 NE5       30.05R
KILLEEN-SKYLRK CLOUDY    75  63  64 NE7       30.05S
FORT HOOD      CLOUDY    78  66  66 NE6       30.05R
GATESVILLE     MOCLDY    75  66  73 E6        30.08S
HAMILTON       PTCLDY    73  64  73 E7        30.08S
LAMPASAS       CLEAR     76  69  80 NE7       30.06R
$$

TXZ095>097-106>112-122>126-135>138-148>153-164>167-020500-
EAST TEXAS

CITY           SKY/WX    TMP DP  RH WIND       PRES   REMARKS
PARIS          MOCLDY    72  64  78 NE6       30.07R
SULPHUR SPRNGS PTCLDY    71  69  95 CALM      30.07R
CLARKSVILLE    CLOUDY    73  69  89 NE3       30.06R
MOUNT PLEASANT MOCLDY    70  68  94 N3        30.05S
GILMER         PTCLDY    70  70 100 CALM      30.05S
MINEOLA        CLOUDY    72  70  94 CALM      30.05R
TYLER          PTCLDY    71  68  90 N3        30.04R
LONGVIEW       CLOUDY    72  66  83 NE5       30.02R
MARSHALL       CLOUDY    73  71  91 CALM      30.04R
ATHENS         CLOUDY    70  68  94 NE5       30.03R
JACKSONVILLE   CLOUDY    70  68  94 N3        30.04S
HENDERSON      CLOUDY    69  69  99 N3        30.03S
NACOGDOCHES    CLOUDY    70  70 100 N3        30.01S
LUFKIN         CLOUDY    74  68  81 N5        30.00S
$$

SUPPLEMENTAL OBSERVATIONS (CENTRAL)

CITY           SKY/WX    TMP DP  RH WIND       PRES   REMARKS
PAT MAYSE LAKE   N/A     70  66  88 NE2         N/A
GREENVILLE       N/A     70  66  88 N3          N/A
CEDAR HILL       N/A     72  64  78 CALM        N/A
PALESTINE        N/A     70  64  83 N3          N/A
MCGREGOR         N/A     75  66  73 E5          N/A
TEMPLE           N/A     75  66  73 NE8         N/A
$$

SUPPLEMENTAL OBSERVATIONS (WEST)

CITY           SKY/WX    TMP DP  RH WIND       PRES   REMARKS
MILLERS CREEK    N/A     75  57  53 E6          N/A
POSSUM KINGDOM   N/A     75  63  64 E6          N/A
GRANBURY         N/A     73  63  68 E5          N/A
HAMBY            N/A     73  59  60 E6          N/A
IVIE RESERVOIR   N/A     77  57  50 E8          N/A
COLORADO BEND    N/A     73  63  68 E5          N/A
$$

SUPPLEMENTAL OBSERVATIONS (EAST)

CITY           SKY/WX    TMP DP  RH WIND       PRES   REMARKS
CLARKSVILLE      N/A     72  68  88 NE2         N/A
TEXARKANA        N/A     70  66  88 NE3         N/A
LINDEN           N/A     70  66  88 NE2         N/A
GILMER           N/A     70  66  88 N3          N/A
HENDERSON        N/A     70  66  88 CALM        N/A
LUFKIN           N/A     72  70  94 MISG        N/A
N SABINE NF      N/A     70  66  88 MISG        N/A
S SABINE NF      N/A     72  68  88 N2          N/A
$$

SUPPLEMENTAL OBSERVATIONS ARE A COLLECTION OF AUTOMATED INSTRUMENTS
THAT ARE MAINTAINED BY A VARIETY OF FEDERAL AND STATE AGENCIES.
CERTAIN ELEMENTS...SUCH AS HUMIDITY VALUES AND SUSTAINED WIND
SPEEDS...MAY BE APPROXIMATED.




USA.gov is the U.S. government's official web portal to all federal, state and local government web resources and services.